Weather History for PANN - March, 2013

Change the Weather History Date:

Thursday, March 14, 2013

  Actual Average (PAFA) Record (PAFA)
Temperature  
Mean Temperature 20 °F 10 °F  
Max Temperature 41 °F 24 °F 46 °F (1926)
Min Temperature -2 °F -5 °F -43 °F (1964)
Degree Days  
Heating Degree Days 46 55  
Month to date heating degree days 814  
Since 1 July heating degree days 11204  
Cooling Degree Days 0 0  
Month to date cooling degree days 0  
Year to date cooling degree days 0  
Moisture  
Dew Point -7 °F    
Average Humidity 46    
Maximum Humidity 95    
Minimum Humidity 33    
Precipitation  
Precipitation 0.12 in 0.01 in 0.27 in (1943)
Month to date precipitation 0.13  
Year to date precipitation 1.13  
Snow  
Snow 0.00 in 0.20 in 4.80 in (1930)
Month to date snowfall 2.5  
Since 1 July snowfall 58.8  
Snow Depth -    
Sea Level Pressure  
Sea Level Pressure 30.10 in    
Wind  
Wind Speed 12 mph (ENE)    
Max Wind Speed 23 mph    
Max Gust Speed 31 mph    
Visibility 10 miles    
Events Rain    
T = Trace of Precipitation, MM = Missing Value Source: NWS Daily Summary

Daily Weather History Graph

Daily Weather History Graph

Search for Another Location

Airport or City:

Trip Planner

Search our weather history database for the weather conditions in past years. The results will help you decide how hot, cold, wet, or windy it might be!

Date:

Astronomy

Mar. 14, 2013 Rise Set
Actual Time 8:16 AM AKDT 7:55 PM AKDT
Civil Twilight 7:28 AM AKDT 8:43 PM AKDT
Nautical Twilight 6:31 AM AKDT 9:41 PM AKDT
Astronomical Twilight 5:27 AM AKDT 10:45 PM AKDT
Moon 8:18 AM AKDT (3/14) No Moon Set
Length of Visible Light 13h 14m
Length of Day
11h 38m
Waxing Crescent, 10% of the Moon is Illuminated
Mar 14
Waxing Crescent
Mar 19
First Quarter
Mar 27
Full
Apr 2
Last Quarter
Apr 10
New

Hourly Weather History & Observations

Time (AKDT) Temp. Windchill Dew Point Humidity Pressure Visibility Wind Dir Wind Speed Gust Speed Precip Events Conditions
12:53 AM -0.0 °F -17.1 °F -18.9 °F 41% 30.24 in 10.0 mi NE 11.5 mph 23.0 mph N/A   Partly Cloudy
1:53 AM -0.9 °F -21.2 °F -20.0 °F 40% 30.22 in 10.0 mi NE 16.1 mph 21.9 mph N/A   Clear
2:53 AM -2.0 °F -20.5 °F -20.9 °F 40% 30.20 in 10.0 mi ENE 12.7 mph 21.9 mph N/A   Clear
3:53 AM -2.9 °F -18.8 °F -20.9 °F 42% 30.19 in 10.0 mi NE 9.2 mph - N/A   Clear
4:53 AM -2.0 °F -18.7 °F -20.9 °F 40% 30.17 in 10.0 mi NE 10.4 mph - N/A   Clear
5:53 AM -2.0 °F -16.6 °F -20.0 °F 42% 30.15 in 10.0 mi NE 8.1 mph - N/A   Clear
6:53 AM -0.0 °F -16.3 °F -18.9 °F 41% 30.14 in 10.0 mi ENE 10.4 mph 18.4 mph N/A   Clear
7:53 AM -2.0 °F -15.4 °F -18.9 °F 45% 30.14 in 10.0 mi East 6.9 mph - N/A   Clear
8:53 AM -2.9 °F -20.8 °F -18.9 °F 46% 30.14 in 10.0 mi East 11.5 mph - N/A   Clear
9:53 AM -2.0 °F -18.7 °F -18.0 °F 47% 30.15 in 10.0 mi East 10.4 mph - N/A   Clear
10:53 AM 3.9 °F -13.0 °F -16.1 °F 39% 30.14 in 10.0 mi East 12.7 mph 18.4 mph N/A   Scattered Clouds
11:53 AM 9.0 °F -11.0 °F -11.9 °F 38% 30.15 in 10.0 mi ENE 21.9 mph 29.9 mph N/A   Clear
12:53 PM 10.9 °F -7.0 °F -11.0 °F 37% 30.15 in 10.0 mi ENE 18.4 mph 26.5 mph N/A   Clear
1:53 PM 12.9 °F -4.4 °F -9.0 °F 37% 30.14 in 10.0 mi ENE 18.4 mph 28.8 mph N/A   Clear
2:53 PM 15.1 °F -1.6 °F -8.0 °F 36% 30.14 in 10.0 mi ENE 18.4 mph 31.1 mph N/A   Clear
3:53 PM 17.1 °F -0.6 °F -6.0 °F 36% 30.13 in 10.0 mi ENE 23.0 mph 28.8 mph N/A   Clear
4:53 PM 18.0 °F 2.6 °F -5.1 °F 36% 30.13 in 10.0 mi East 17.3 mph 26.5 mph N/A   Clear
5:53 PM 18.0 °F 4.8 °F -7.1 °F 33% 30.14 in 10.0 mi East 12.7 mph - N/A   Clear
6:53 PM 17.1 °F 5.0 °F -6.0 °F 36% 30.14 in 10.0 mi ENE 10.4 mph 23.0 mph N/A   Clear
7:53 PM 15.1 °F -1.1 °F -8.0 °F 36% 30.14 in 10.0 mi ENE 17.3 mph 24.2 mph N/A   Clear
8:53 PM 12.9 °F -3.4 °F -9.0 °F 37% 30.15 in 10.0 mi ENE 16.1 mph 26.5 mph N/A   Clear
9:53 PM 10.9 °F -4.1 °F -11.0 °F 37% 30.15 in 10.0 mi ENE 12.7 mph 21.9 mph N/A   Clear
10:53 PM 10.0 °F -4.5 °F -11.0 °F 38% 30.14 in 10.0 mi ENE 11.5 mph 24.2 mph N/A   Clear
11:53 PM 10.0 °F -6.5 °F -11.9 °F 37% 30.14 in 10.0 mi ENE 15.0 mph 21.9 mph N/A   Clear